Location: Moscow
(44.4414°N, 72.7154°W)
Time: 23:25:08
(UTC+00:00)

Explorer 11/Cluster Stage 4 - Pass Details

Date: 16 December 2025
Orbit: 463 x 1179 km, 28.8° (Epoch: 23 January)

Event Time Altitude Azimuth Distance (km) Brightness Sun altitude
Rises 21:48:25 0° 218° (SW) 4,039 11.6 -6.5°
Reaches altitude 10° 21:52:27 10° 200° (SSW) 3,088 10.3 -7.1°
Maximum altitude 21:57:02 17° 164° (SSE) 2,575 9.3 -7.8°
Drops below altitude 10° 22:01:28 10° 127° (SE) 2,983 9.3 -8.6°
Sets 22:05:15 0° 108° (ESE) 3,843 9.7 -9.2°
Enters shadow 22:05:17 - 108° (ESE) 3,853 9.7 -9.2°
